Location: Oberwangen
(47.4286°N, 8.9679°E)
Time: 10:05:14
(UTC+00:00)

Cosmos 1816 Rocket - Pass Details

Date: 24 October 2021
Orbit: 952 x 998 km, 82.9° (Epoch: 08 December)

Event Time Altitude Azimuth Distance (km) Brightness Sun altitude
Rises 18:19:28 0° 357° (N) 3,649 7.6 -20.8°
Reaches altitude 10° 18:22:14 10° 6° (N) 2,704 6.8 -21.3°
Enters shadow 18:26:58 33° 54° (NE) 1,571 5.2 -22.1°
